| time (UTC) | temp C | wind direction | speed KPH | gust KPH | rain 1hr cm | rain 24hr cm | rain mn cm | humidity % | barometer mb |
| 20260508004348 | 12 | 248 | 17.7 | 29.0 | 0.03 | 0.03 | 0.10 | 92 | 998.7 |
| 20260508003839 | 12 | 270 | 12.9 | 33.8 | 0.03 | 0.03 | 0.10 | 92 | 998.5 |
| 20260508003327 | 12 | 248 | 19.3 | 33.8 | 0.03 | 0.03 | 0.10 | 92 | 998.6 |
| 20260508002818 | 12 | 225 | 20.9 | 32.2 | 0.03 | 0.03 | 0.10 | 91 | 998.5 |
| 20260508002310 | 12 | 248 | 12.9 | 32.2 | 0.03 | 0.03 | 0.10 | 91 | 998.6 |
| 20260508001248 | 12 | 293 | 12.9 | 24.1 | 0.00 | 0.00 | 0.05 | 91 | 998.8 |
| 20260508000738 | 12 | 225 | 12.9 | 20.9 | 0.00 | 0.00 | 0.05 | 90 | 998.9 |
| 20260507235718 | 12 | 293 | 8.0 | 14.5 | 0.00 | 0.00 | 0.05 | 90 | 998.8 |
| 20260507235207 | 12 | 225 | 6.4 | 14.5 | 0.00 | 0.00 | 0.05 | 90 | 999.0 |
| 20260507234657 | 12 | 248 | 6.4 | 14.5 | 0.00 | 0.00 | 0.05 | 90 | 999.0 |
| 20260507234146 | 12 | 248 | 6.4 | 14.5 | 0.00 | 0.00 | 0.05 | 90 | 999.1 |
| 20260507233636 | 12 | 293 | 6.4 | 20.9 | 0.00 | 0.00 | 0.05 | 90 | 999.1 |
| 20260507233126 | 12 | 248 | 6.4 | 20.9 | 0.00 | 0.00 | 0.05 | 90 | 999.2 |
| 20260507232617 | 11 | 248 | 6.4 | 17.7 | 0.00 | 0.00 | 0.05 | 90 | 999.3 |
| 20260507232107 | 12 | 293 | 6.4 | 17.7 | 0.00 | 0.00 | 0.05 | 90 | 999.2 |
| 20260507231047 | 12 | 293 | 6.4 | 14.5 | 0.00 | 0.00 | 0.05 | 90 | 999.7 |
| 20260507230536 | 12 | 293 | 4.8 | 14.5 | 0.00 | 0.00 | 0.05 | 90 | 999.9 |
| 20260507230027 | 12 | 248 | 6.4 | 14.5 | 0.00 | 0.00 | 0.05 | 90 | 999.8 |
| 20260507225005 | 12 | 270 | 6.4 | 14.5 | 0.00 | 0.00 | 0.05 | 90 | 999.6 |
| 20260507224456 | 12 | 270 | 6.4 | 17.7 | 0.00 | 0.00 | 0.05 | 90 | 999.6 |
| 20260507223945 | 12 | 270 | 11.3 | 17.7 | 0.00 | 0.00 | 0.05 | 89 | 999.4 |
| 20260507223435 | 12 | 270 | 6.4 | 12.9 | 0.00 | 0.00 | 0.05 | 88 | 999.2 |
| 20260507222925 | 13 | 248 | 4.8 | 11.3 | 0.00 | 0.00 | 0.05 | 88 | 999.2 |
| 20260507222416 | 13 | 293 | 4.8 | 11.3 | 0.00 | 0.00 | 0.05 | 88 | 999.1 |
| 20260507221904 | 13 | 270 | 6.4 | 11.3 | 0.00 | 0.00 | 0.05 | 88 | 999.1 |
| 20260507221354 | 13 | 270 | 4.8 | 11.3 | 0.00 | 0.00 | 0.05 | 88 | 998.8 |
| 20260507215825 | 13 | 270 | 6.4 | 12.9 | 0.00 | 0.00 | 0.05 | 87 | 998.8 |
| 20260507215327 | 13 | 293 | 6.4 | 12.9 | 0.00 | 0.00 | 0.05 | 87 | 998.7 |
| 20260507214805 | 13 | 248 | 3.2 | 12.9 | 0.00 | 0.00 | 0.05 | 86 | 998.8 |
| 20260507214255 | 13 | 248 | 6.4 | 12.9 | 0.00 | 0.00 | 0.05 | 86 | 999.1 |
| 20260507213743 | 13 | 293 | 6.4 | 12.9 | 0.00 | 0.00 | 0.05 | 85 | 999.0 |
| 20260507213234 | 13 | 225 | 4.8 | 12.9 | 0.00 | 0.00 | 0.05 | 85 | 998.7 |
| 20260507212724 | 13 | 293 | 6.4 | 11.3 | 0.00 | 0.00 | 0.05 | 85 | 998.7 |
| 20260507212215 | 13 | 293 | 6.4 | 17.7 | 0.00 | 0.00 | 0.05 | 84 | 998.2 |
| 20260507211704 | 13 | 270 | 4.8 | 17.7 | 0.00 | 0.00 | 0.05 | 84 | 998.2 |
| 20260507210642 | 13 | 270 | 6.4 | 14.5 | 0.00 | 0.00 | 0.05 | 83 | 998.3 |
| 20260507210133 | 13 | 270 | 6.4 | 14.5 | 0.00 | 0.00 | 0.05 | 83 | 998.4 |
| 20260507205623 | 13 | 293 | 4.8 | 14.5 | 0.00 | 0.00 | 0.05 | 83 | 998.5 |
| 20260507205112 | 13 | 225 | 8.0 | 14.5 | 0.00 | 0.00 | 0.05 | 83 | 998.6 |
| 20260507204055 | 13 | 293 | 6.4 | 12.9 | 0.00 | 0.00 | 0.05 | 82 | 998.7 |
| 20260507203542 | 13 | 270 | 3.2 | 17.7 | 0.00 | 0.00 | 0.05 | 82 | 998.3 |
| 20260507203034 | 13 | 270 | 3.2 | 17.7 | 0.00 | 0.00 | 0.05 | 82 | 997.8 |
| 20260507202523 | 13 | 203 | 6.4 | 14.5 | 0.00 | 0.00 | 0.05 | 82 | 997.4 |
| 20260507202012 | 13 | 270 | 4.8 | 17.7 | 0.00 | 0.00 | 0.05 | 82 | 997.3 |
| 20260507201503 | 13 | 248 | 8.0 | 17.7 | 0.00 | 0.00 | 0.05 | 82 | 997.0 |
| 20260507200952 | 13 | 248 | 6.4 | 27.4 | 0.00 | 0.00 | 0.05 | 81 | 996.9 |
| 20260507200454 | 13 | 225 | 8.0 | 32.2 | 0.00 | 0.00 | 0.05 | 81 | 996.7 |
| 20260507195932 | 13 | 293 | 9.7 | 32.2 | 0.00 | 0.00 | 0.05 | 81 | 996.6 |
| 20260507195428 | 13 | 225 | 17.7 | 37.0 | 0.00 | 0.00 | 0.05 | 81 | 996.4 |
| 20260507194912 | 13 | 270 | 9.7 | 37.0 | 0.00 | 0.00 | 0.05 | 81 | 997.1 |
| 20260507194401 | 13 | 270 | 12.9 | 24.1 | 0.00 | 0.00 | 0.05 | 80 | 997.4 |
| 20260507193852 | 14 | 225 | 8.0 | 25.7 | 0.00 | 0.00 | 0.05 | 81 | 997.5 |
| 20260507192321 | 14 | 270 | 6.4 | 20.9 | 0.00 | 0.00 | 0.05 | 81 | 998.7 |
| 20260507191811 | 14 | 248 | 6.4 | 17.7 | 0.00 | 0.00 | 0.05 | 81 | 998.8 |
| 20260507191302 | 14 | 248 | 6.4 | 17.7 | 0.00 | 0.00 | 0.05 | 80 | 998.9 |
| 20260507190751 | 14 | 293 | 12.9 | 17.7 | 0.00 | 0.00 | 0.05 | 80 | 999.4 |
| 20260507190240 | 15 | 248 | 9.7 | 17.7 | 0.00 | 0.00 | 0.05 | 80 | 999.4 |
| 20260507185221 | 15 | 293 | 12.9 | 25.7 | 0.00 | 0.00 | 0.05 | 79 | 999.7 |
| 20260507184711 | 15 | 293 | 6.4 | 17.7 | 0.00 | 0.00 | 0.05 | 80 | 999.5 |
| 20260507184200 | 15 | 293 | 9.7 | 22.5 | 0.00 | 0.00 | 0.05 | 79 | 999.8 |
| 20260507183650 | 15 | 293 | 11.3 | 22.5 | 0.00 | 0.00 | 0.05 | 79 | 999.7 |
| 20260507183139 | 15 | 270 | 8.0 | 17.7 | 0.00 | 0.00 | 0.05 | 79 | 999.6 |
| 20260507182632 | 15 | 293 | 11.3 | 17.7 | 0.00 | 0.00 | 0.05 | 79 | 999.4 |
| 20260507182116 | 15 | 225 | 11.3 | 17.7 | 0.00 | 0.00 | 0.05 | 79 | 999.8 |
| 20260507181606 | 15 | 270 | 11.3 | 22.5 | 0.00 | 0.00 | 0.05 | 79 | 999.4 |
| 20260507181057 | 15 | 248 | 8.0 | 22.5 | 0.00 | 0.00 | 0.05 | 79 | 999.6 |
| 20260507180549 | 15 | 270 | 6.4 | 25.7 | 0.00 | 0.00 | 0.05 | 80 | 999.0 |
| 20260507180040 | 15 | 248 | 6.4 | 25.7 | 0.00 | 0.00 | 0.05 | 80 | 999.0 |
| 20260507175530 | 15 | 270 | 9.7 | 20.9 | 0.00 | 0.00 | 0.05 | 80 | 999.2 |
| 20260507175019 | 15 | 248 | 8.0 | 14.5 | 0.00 | 0.00 | 0.05 | 80 | 999.3 |
| 20260507174515 | 15 | 293 | 6.4 | 14.5 | 0.00 | 0.00 | 0.05 | 81 | 999.1 |
| 20260507174000 | 15 | 270 | 9.7 | 24.1 | 0.00 | 0.00 | 0.05 | 82 | 999.0 |
| 20260507173449 | 15 | 293 | 12.9 | 24.1 | 0.00 | 0.00 | 0.05 | 82 | 998.9 |
| 20260507172938 | 15 | 293 | 12.9 | 24.1 | 0.00 | 0.00 | 0.05 | 81 | 999.2 |
| 20260507172431 | 15 | 225 | 9.7 | 25.7 | 0.00 | 0.00 | 0.05 | 82 | 998.9 |
| 20260507171918 | 15 | 293 | 9.7 | 25.7 | 0.00 | 0.00 | 0.05 | 82 | 999.2 |
| 20260507171409 | 15 | 248 | 6.4 | 27.4 | 0.00 | 0.00 | 0.05 | 83 | 999.2 |
| 20260507170900 | 15 | 270 | 12.9 | 27.4 | 0.00 | 0.00 | 0.05 | 83 | 999.4 |
| 20260507170348 | 15 | 248 | 8.0 | 20.9 | 0.00 | 0.00 | 0.05 | 83 | 999.3 |
| 20260507165840 | 15 | 270 | 8.0 | 20.9 | 0.00 | 0.00 | 0.05 | 84 | 999.6 |
| 20260507165328 | 15 | 293 | 6.4 | 17.7 | 0.00 | 0.00 | 0.05 | 84 | 999.3 |
| 20260507164307 | 14 | 293 | 8.0 | 20.9 | 0.00 | 0.00 | 0.05 | 84 | 999.5 |
| 20260507163248 | 14 | 203 | 12.9 | 29.0 | 0.00 | 0.00 | 0.05 | 85 | 999.2 |
| 20260507162228 | 14 | 203 | 8.0 | 17.7 | 0.00 | 0.00 | 0.05 | 85 | 999.4 |
| 20260507161717 | 14 | 293 | 8.0 | 17.7 | 0.00 | 0.00 | 0.05 | 85 | 999.2 |
| 20260507161208 | 14 | 293 | 6.4 | 12.9 | 0.00 | 0.00 | 0.05 | 85 | 999.3 |
| 20260507160658 | 15 | 270 | 4.8 | 17.7 | 0.00 | 0.00 | 0.05 | 85 | 999.1 |
| 20260507155126 | 15 | 270 | 11.3 | 20.9 | 0.00 | 0.00 | 0.05 | 85 | 998.6 |
| 20260507154617 | 15 | 248 | 11.3 | 20.9 | 0.00 | 0.00 | 0.05 | 85 | 998.8 |
| 20260507154115 | 15 | 270 | 6.4 | 17.7 | 0.00 | 0.00 | 0.05 | 87 | 999.2 |
| 20260507153558 | 15 | 248 | 6.4 | 17.7 | 0.00 | 0.00 | 0.05 | 87 | 999.4 |
| 20260507153056 | 14 | 270 | 4.8 | 17.7 | 0.00 | 0.00 | 0.05 | 87 | 999.9 |
| 20260507152026 | 14 | 270 | 4.8 | 17.7 | 0.00 | 0.00 | 0.05 | 86 | 1000.1 |
| 20260507151516 | 14 | 270 | 11.3 | 17.7 | 0.00 | 0.00 | 0.05 | 86 | 1000.1 |
| 20260507151006 | 14 | 270 | 6.4 | 17.7 | 0.00 | 0.00 | 0.05 | 87 | 999.9 |
| 20260507150456 | 14 | 225 | 6.4 | 17.7 | 0.00 | 0.00 | 0.05 | 87 | 1000.0 |
| 20260507145945 | 13 | 270 | 11.3 | 20.9 | 0.00 | 0.00 | 0.05 | 87 | 1000.2 |
| 20260507145436 | 14 | 270 | 8.0 | 22.5 | 0.00 | 0.00 | 0.05 | 88 | 999.7 |
| 20260507144926 | 14 | 225 | 12.9 | 22.5 | 0.00 | 0.00 | 0.05 | 88 | 1000.3 |
| 20260507144415 | 14 | 203 | 11.3 | 17.7 | 0.00 | 0.00 | 0.05 | 89 | 999.9 |
| 20260507143355 | 14 | 293 | 8.0 | 20.9 | 0.00 | 0.00 | 0.05 | 90 | 1000.0 |
| 20260507142845 | 15 | 225 | 6.4 | 17.7 | 0.00 | 0.00 | 0.05 | 90 | 999.9 |
| 20260507142334 | 15 | 248 | 6.4 | 17.7 | 0.00 | 0.00 | 0.05 | 90 | 999.8 |
| 20260507141824 | 15 | 225 | 9.7 | 17.7 | 0.00 | 0.00 | 0.05 | 90 | 999.8 |
| 20260507140804 | 15 | 270 | 4.8 | 17.7 | 0.00 | 0.00 | 0.05 | 90 | 1000.1 |
| 20260507140254 | 15 | 270 | 3.2 | 17.7 | 0.00 | 0.00 | 0.05 | 90 | 999.7 |
| 20260507135743 | 15 | 248 | 9.7 | 17.7 | 0.00 | 0.00 | 0.05 | 90 | 999.5 |
| 20260507135233 | 15 | 225 | 12.9 | 17.7 | 0.00 | 0.00 | 0.05 | 91 | 999.9 |
| 20260507134723 | 15 | 248 | 8.0 | 14.5 | 0.00 | 0.00 | 0.05 | 91 | 1000.2 |
| 20260507134219 | 14 | 248 | 3.2 | 14.5 | 0.00 | 0.00 | 0.05 | 91 | 1001.0 |
| 20260507133703 | 14 | 225 | 6.4 | 9.7 | 0.00 | 0.00 | 0.05 | 91 | 1000.8 |
| 20260507133153 | 14 | 225 | 4.8 | 17.7 | 0.00 | 0.00 | 0.05 | 91 | 1000.4 |
| 20260507132644 | 14 | 270 | 6.4 | 17.7 | 0.00 | 0.00 | 0.05 | 91 | 1000.0 |
| 20260507132133 | 14 | 225 | 12.9 | 17.7 | 0.00 | 0.00 | 0.05 | 91 | 999.7 |
| 20260507131626 | 14 | 248 | 12.9 | 14.5 | 0.00 | 0.00 | 0.05 | 91 | 999.8 |
| 20260507131112 | 14 | 180 | 6.4 | 14.5 | 0.00 | 0.00 | 0.05 | 91 | 999.2 |
| 20260507130601 | 14 | 248 | 8.0 | 0.0 | 0.00 | 0.00 | 0.05 | 91 | 999.7 |
| 20260507130107 | 14 | 225 | 11.3 | 17.7 | 0.00 | 0.00 | 0.05 | 91 | 999.6 |
| 20260507125545 | 14 | 248 | 8.0 | 22.5 | 0.00 | 0.00 | 0.05 | 91 | 999.5 |
| 20260507125035 | 14 | 270 | 8.0 | 22.5 | 0.00 | 0.00 | 0.05 | 92 | 999.5 |
| 20260507124524 | 13 | 203 | 17.7 | 22.5 | 0.00 | 0.00 | 0.05 | 92 | 999.0 |
| 20260507124014 | 13 | 225 | 16.1 | 24.1 | 0.00 | 0.00 | 0.05 | 92 | 999.0 |
| 20260507122955 | 13 | 248 | 16.1 | 25.7 | 0.00 | 0.00 | 0.05 | 92 | 998.6 |
| 20260507122445 | 13 | 248 | 11.3 | 24.1 | 0.00 | 0.00 | 0.05 | 92 | 999.1 |
| 20260507121933 | 13 | 270 | 12.9 | 32.2 | 0.00 | 0.00 | 0.05 | 93 | 999.6 |
| 20260507121430 | 13 | 248 | 11.3 | 32.2 | 0.00 | 0.00 | 0.05 | 93 | 999.8 |
| 20260507120926 | 13 | 248 | 8.0 | 22.5 | 0.00 | 0.00 | 0.05 | 93 | 999.7 |
| 20260507120405 | 13 | 248 | 8.0 | 24.1 | 0.00 | 0.00 | 0.05 | 93 | 999.7 |
| 20260507115854 | 13 | 225 | 17.7 | 29.0 | 0.00 | 0.00 | 0.05 | 93 | 998.8 |
| 20260507115343 | 13 | 248 | 12.9 | 29.0 | 0.00 | 0.00 | 0.05 | 93 | 998.7 |
| 20260507114833 | 13 | 248 | 16.1 | 25.7 | 0.00 | 0.00 | 0.05 | 93 | 998.5 |
| 20260507114323 | 13 | 270 | 11.3 | 24.1 | 0.00 | 0.00 | 0.05 | 94 | 998.6 |
| 20260507113816 | 13 | 248 | 14.5 | 24.1 | 0.00 | 0.00 | 0.05 | 94 | 998.5 |
| 20260507113304 | 13 | 225 | 12.9 | 24.1 | 0.00 | 0.00 | 0.05 | 94 | 998.6 |
| 20260507112753 | 13 | 293 | 4.8 | 29.0 | 0.00 | 0.00 | 0.05 | 94 | 999.3 |
| 20260507111733 | 12 | 248 | 12.9 | 24.1 | 0.00 | 0.00 | 0.05 | 94 | 997.8 |
| 20260507111222 | 13 | 248 | 11.3 | 17.7 | 0.00 | 0.00 | 0.05 | 94 | 998.1 |
| 20260507110712 | 13 | 248 | 12.9 | 20.9 | 0.00 | 0.00 | 0.05 | 94 | 997.8 |
| 20260507110202 | 13 | 248 | 14.5 | 20.9 | 0.00 | 0.00 | 0.05 | 94 | 997.5 |
| 20260507105654 | 13 | 270 | 12.9 | 17.7 | 0.00 | 0.00 | 0.05 | 94 | 998.2 |
| 20260507105142 | 13 | 270 | 8.0 | 17.7 | 0.00 | 0.00 | 0.05 | 94 | 998.4 |
| 20260507104634 | 13 | 248 | 6.4 | 17.7 | 0.00 | 0.00 | 0.05 | 94 | 998.4 |
| 20260507103103 | 13 | 248 | 6.4 | 11.3 | 0.00 | 0.00 | 0.05 | 94 | 998.3 |
| 20260507102557 | 13 | 225 | 6.4 | 11.3 | 0.00 | 0.00 | 0.05 | 94 | 998.4 |
| 20260507102042 | 13 | 225 | 3.2 | 14.5 | 0.00 | 0.00 | 0.05 | 94 | 998.6 |
| 20260507101531 | 13 | 270 | 3.2 | 14.5 | 0.00 | 0.00 | 0.05 | 94 | 998.9 |
| 20260507101022 | 13 | 248 | 6.4 | 12.9 | 0.00 | 0.00 | 0.05 | 94 | 998.4 |
| 20260507100511 | 13 | 248 | 6.4 | 12.9 | 0.00 | 0.00 | 0.05 | 94 | 998.5 |
| 20260507100001 | 13 | 248 | 4.8 | 12.9 | 0.00 | 0.00 | 0.05 | 94 | 998.6 |
| 20260507094940 | 13 | 270 | 4.8 | 20.9 | 0.00 | 0.00 | 0.05 | 94 | 998.4 |
| 20260507094428 | 13 | 248 | 8.0 | 20.9 | 0.00 | 0.00 | 0.05 | 94 | 997.7 |
| 20260507093920 | 13 | 248 | 9.7 | 17.7 | 0.00 | 0.00 | 0.05 | 94 | 997.6 |
| 20260507093411 | 13 | 248 | 12.9 | 17.7 | 0.00 | 0.00 | 0.05 | 94 | 997.8 |
| 20260507092900 | 13 | 270 | 12.9 | 17.7 | 0.00 | 0.00 | 0.05 | 94 | 997.9 |
| 20260507092349 | 13 | 248 | 6.4 | 17.7 | 0.00 | 0.00 | 0.05 | 94 | 998.1 |
| 20260507091840 | 13 | 270 | 8.0 | 17.7 | 0.00 | 0.00 | 0.05 | 94 | 998.3 |
| 20260507091330 | 13 | 248 | 6.4 | 12.9 | 0.00 | 0.00 | 0.05 | 94 | 998.1 |
| 20260507090820 | 13 | 225 | 4.8 | 14.5 | 0.00 | 0.00 | 0.05 | 94 | 998.1 |
| 20260507090309 | 13 | 203 | 6.4 | 17.7 | 0.00 | 0.00 | 0.05 | 94 | 997.7 |
| 20260507085800 | 13 | 248 | 8.0 | 17.7 | 0.00 | 0.00 | 0.05 | 94 | 998.0 |
| 20260507085250 | 13 | 270 | 6.4 | 12.9 | 0.00 | 0.00 | 0.05 | 94 | 998.0 |
| 20260507084739 | 14 | 248 | 3.2 | 17.7 | 0.00 | 0.00 | 0.05 | 94 | 998.0 |
| 20260507084229 | 14 | 270 | 6.4 | 17.7 | 0.00 | 0.00 | 0.05 | 94 | 998.1 |
| 20260507083719 | 14 | 270 | 6.4 | 17.7 | 0.00 | 0.00 | 0.05 | 94 | 998.9 |
| 20260507083209 | 14 | 248 | 6.4 | 17.7 | 0.00 | 0.00 | 0.05 | 94 | 999.4 |
| 20260507082659 | 14 | 248 | 4.8 | 11.3 | 0.00 | 0.00 | 0.05 | 94 | 999.5 |
| 20260507082149 | 14 | 293 | 6.4 | 11.3 | 0.00 | 0.00 | 0.05 | 94 | 999.5 |
| 20260507081128 | 14 | 270 | 3.2 | 9.7 | 0.00 | 0.00 | 0.05 | 94 | 999.0 |
| 20260507080630 | 14 | 270 | 3.2 | 6.4 | 0.00 | 0.00 | 0.05 | 94 | 998.9 |
| 20260507080111 | 14 | 203 | 3.2 | 6.4 | 0.00 | 0.00 | 0.05 | 94 | 999.1 |
| 20260507075558 | 14 | 270 | 0.0 | 6.4 | 0.00 | 0.00 | 0.05 | 94 | 999.1 |
| 20260507075049 | 14 | 270 | 3.2 | 11.3 | 0.00 | 0.00 | 0.05 | 94 | 999.0 |
| 20260507074537 | 14 | 270 | 3.2 | 17.7 | 0.00 | 0.00 | 0.05 | 94 | 999.0 |
| 20260507074029 | 14 | 248 | 6.4 | 25.7 | 0.00 | 0.00 | 0.05 | 94 | 999.0 |
| 20260507073007 | 15 | 225 | 8.0 | 22.5 | 0.00 | 0.00 | 0.05 | 94 | 998.3 |
| 20260507071948 | 15 | 270 | 8.0 | 24.1 | 0.00 | 0.00 | 0.05 | 94 | 997.0 |
| 20260507071440 | 15 | 203 | 3.2 | 27.4 | 0.00 | 0.00 | 0.05 | 94 | 994.3 |
| 20260507070927 | 15 | 90 | 17.7 | 27.4 | 0.00 | 0.00 | 0.05 | 94 | 993.3 |
| 20260507070414 | 15 | 225 | 6.4 | 0.0 | 0.00 | 0.00 | 0.05 | 94 | 998.5 |
| 20260507070159 | 15 | 203 | 9.7 | 0.0 | 0.00 | 0.00 | 0.05 | 94 | 999.1 |
| 20260507065501 | 15 | 270 | 6.4 | 9.7 | 0.03 | 2.26 | 0.05 | 94 | 1000.4 |
| 20260507064950 | 15 | 90 | 0.0 | 6.4 | 0.03 | 2.26 | 0.05 | 94 | 998.8 |
| 20260507064440 | 15 | 158 | 1.6 | 6.4 | 0.00 | 2.21 | 0.03 | 94 | 999.2 |
| 20260507063931 | 15 | 315 | 3.2 | 6.4 | 0.03 | 2.21 | 0.03 | 94 | 999.4 |
| 20260507063420 | 15 | 113 | 4.8 | 12.9 | 0.03 | 2.21 | 0.03 | 94 | 998.8 |
| 20260507062910 | 15 | 113 | 1.6 | 12.9 | 0.03 | 2.21 | 0.03 | 94 | 1000.7 |
| 20260507062400 | 15 | 315 | 3.2 | 12.9 | 0.03 | 2.21 | 0.03 | 93 | 1000.1 |
| 20260507061348 | 15 | 270 | 6.4 | 9.7 | 0.03 | 2.21 | 0.03 | 93 | 1000.0 |
| 20260507060830 | 15 | 293 | 3.2 | 9.7 | 0.03 | 2.21 | 0.03 | 93 | 1000.1 |
| 20260507055809 | 16 | 315 | 4.8 | 6.4 | 0.03 | 2.21 | 0.03 | 93 | 1000.5 |
| 20260507055301 | 16 | 68 | 3.2 | 6.4 | 0.03 | 2.21 | 0.03 | 93 | 1000.2 |
| 20260507054749 | 16 | 293 | 3.2 | 9.7 | 0.03 | 2.21 | 0.03 | 93 | 1000.3 |
| 20260507054239 | 16 | 68 | 3.2 | 9.7 | 0.00 | 2.18 | 0.00 | 93 | 1000.3 |
| 20260507053219 | 16 | 338 | 6.4 | 14.5 | 0.00 | 2.18 | 0.00 | 93 | 1000.2 |
| 20260507052159 | 16 | 270 | 4.8 | 6.4 | 0.00 | 2.18 | 0.00 | 93 | 1001.3 |
| 20260507051648 | 16 | 203 | 1.6 | 12.9 | 0.00 | 2.18 | 0.00 | 93 | 1000.3 |
| 20260507050629 | 15 | 0 | 6.4 | 9.7 | 0.00 | 2.18 | 0.00 | 93 | 999.7 |
| 20260507050118 | 16 | 68 | 6.4 | 6.4 | 0.00 | 2.18 | 0.00 | 93 | 998.5 |
| 20260507045608 | 16 | 315 | 0.0 | 0.0 | 0.00 | 2.18 | 0.00 | 93 | 998.7 |
| 20260507044548 | 15 | 180 | 0.0 | 6.4 | 0.00 | 2.18 | 0.00 | 93 | 998.4 |
| 20260507044038 | 16 | 203 | 3.2 | 6.4 | 0.00 | 2.18 | 0.00 | 93 | 998.3 |
| 20260507043528 | 16 | 203 | 1.6 | 3.2 | 0.00 | 2.18 | 0.00 | 93 | 998.1 |
| 20260507042508 | 16 | 315 | 0.0 | 3.2 | 0.00 | 2.18 | 0.00 | 93 | 998.2 |
| 20260507041958 | 16 | 23 | 1.6 | 6.4 | 0.00 | 2.18 | 0.00 | 92 | 997.6 |
| 20260507041447 | 16 | 45 | 3.2 | 6.4 | 0.00 | 2.18 | 0.00 | 92 | 997.3 |
| 20260507040938 | 15 | 45 | 1.6 | 6.4 | 0.00 | 2.18 | 0.00 | 92 | 997.2 |
| 20260507040440 | 15 | 90 | 1.6 | 6.4 | 0.00 | 2.18 | 0.00 | 92 | 997.5 |
| 20260507035917 | 15 | 90 | 0.0 | 0.0 | 0.00 | 2.18 | 0.00 | 92 | 997.9 |
| 20260507033837 | 16 | 45 | 0.0 | 3.2 | 0.13 | 2.18 | 0.00 | 92 | 998.4 |
| 20260507033327 | 16 | 68 | 0.0 | 3.2 | 0.15 | 2.18 | 0.00 | 92 | 998.3 |
| 20260507032816 | 16 | 45 | 3.2 | 3.2 | 0.15 | 2.18 | 0.00 | 92 | 998.2 |
| 20260507032308 | 16 | 90 | 1.6 | 3.2 | 0.18 | 2.18 | 0.00 | 91 | 998.4 |
| 20260507031756 | 16 | 23 | 1.6 | 3.2 | 0.18 | 2.18 | 0.00 | 91 | 998.7 |
| 20260507030736 | 16 | 68 | 3.2 | 11.3 | 0.20 | 2.18 | 0.00 | 91 | 998.2 |
| 20260507025715 | 16 | 180 | 6.4 | 17.7 | 0.23 | 2.18 | 2.21 | 91 | 998.5 |
| 20260507025205 | 16 | 225 | 11.3 | 17.7 | 0.20 | 2.11 | 2.16 | 91 | 998.6 |
| 20260507024655 | 17 | 225 | 12.9 | 17.7 | 0.23 | 2.11 | 2.13 | 91 | 999.1 |
| 20260507024145 | 17 | 248 | 8.0 | 11.3 | 0.28 | 2.11 | 2.13 | 92 | 998.9 |
| 20260507023635 | 17 | 203 | 6.4 | 11.3 | 0.28 | 2.06 | 2.11 | 92 | 998.6 |
| 20260507023125 | 17 | 225 | 4.8 | 9.7 | 0.94 | 2.03 | 2.06 | 92 | 998.4 |
| 20260507022615 | 17 | 225 | 0.0 | 17.7 | 1.50 | 2.01 | 2.03 | 92 | 999.0 |
| 20260507022106 | 17 | 248 | 4.8 | 17.7 | 1.68 | 2.01 | 2.03 | 92 | 998.6 |
| 20260507021554 | 17 | 248 | 12.9 | 17.7 | 1.88 | 2.01 | 2.03 | 92 | 997.9 |
| 20260507021046 | 17 | 270 | 6.4 | 17.7 | 1.85 | 1.98 | 2.01 | 92 | 998.9 |
| 20260507020535 | 18 | 293 | 6.4 | 17.7 | 1.85 | 1.98 | 2.01 | 92 | 999.3 |
| 20260507015514 | 18 | 293 | 6.4 | 27.4 | 1.83 | 1.96 | 1.98 | 92 | 999.2 |
| 20260507015004 | 18 | 270 | 4.8 | 35.4 | 1.78 | 1.88 | 1.93 | 92 | 998.8 |
| 20260507014454 | 18 | 315 | 19.3 | 35.4 | 1.75 | 1.85 | 1.88 | 91 | 998.8 |
| 20260507013944 | 19 | 315 | 8.0 | 32.2 | 1.70 | 1.83 | 1.85 | 91 | 997.6 |
| 20260507013433 | 19 | 270 | 4.8 | 24.1 | 1.50 | 1.63 | 1.80 | 90 | 998.4 |
| 20260507012924 | 19 | 293 | 6.4 | 22.5 | 0.76 | 0.86 | 0.89 | 89 | 998.6 |
| 20260507012414 | 20 | 293 | 6.4 | 27.4 | 0.33 | 0.46 | 0.48 | 87 | 997.5 |
| 20260507011405 | 23 | 225 | 12.9 | 24.1 | 0.00 | 0.13 | 0.15 | 84 | 997.9 |
| 20260507010333 | 23 | 23 | 14.5 | 33.8 | 0.00 | 0.13 | 0.15 | 84 | 995.6 |
| 20260507005824 | 23 | 315 | 12.9 | 33.8 | 0.00 | 0.13 | 0.15 | 83 | 996.0 |
| 20260507005313 | 23 | 0 | 20.9 | 33.8 | 0.00 | 0.13 | 0.15 | 84 | 995.4 |
| 20260507004803 | 23 | 23 | 12.9 | 24.1 | 0.00 | 0.13 | 0.15 | 84 | 995.5 |